Погода в Гаруте

Индонезия     7°13′55″S   107°55′01″E
темп.,
°C
ветер,
м/с
пор.,
м/с
влажн.,
%
обл.,
%
осадки,
мм/ч
давл.,
гПа
погр.,
м
2 марта, вт
вт201:00+20зюз119596 4.0 101127
04:00+20зсз1191100 0.6 100924
07:00+21сз118696 0.6 101178
10:00+28с125953 0.0 10111072
13:00+29с016458 3.9 10091007
16:00+22ссв0190100 6.6 100857
19:00+21сз1190100 8.1 101024
22:00+20ссз119398 1.0 101244
3 марта, ср
ср301:00+20сз119299 1.2 101026
04:00+20ссз2291100 0.0 100976
07:00+21сз128596 0.0 101074
10:00+24ссз117088 0.0 1011330
13:00+28св225387 0.0 10091219
16:00+23в128288 3.2 1008362
19:00+21в019491 8.4 101027
22:00+21всв019299 6.8 101223
4 марта, чт
чт401:00+20ссз129399 11.2 101234
04:00+20ссз119199 3.1 101130
07:00+20зсз118988 3.1 101270
10:00+25ссв116879 0.0 1012654
13:00+27вюв125985 0.6 10101222
16:00+23ююв1285100 6.6 1009297
19:00+21ююв129698 11.6 101165
22:00+20ю1197100 1.1 101248
5 марта, пт
пт501:00+19зюз1191100 1.6 101123
04:00+18з1278100 0.0 101023
07:00+20зюз117397 0.0 101230
10:00+28ююв124772 0.0 1012833
13:00+30юв224644 0.0 10091664
16:00+26вюв127070 3.1 1007574
19:00+21вюв119585 6.8 101025
22:00+20сз0197100 0.5 101123
6 марта, сб
сб601:00+20зсз119585 1.1 101024
04:00+19зсз119463 0.1 100923
07:00+21зсз018881 0.3 101154
10:00+27в116713 3.1 1011786
13:00+25вюв127956 12.6 1009688
16:00+21в1296100 11.4 1008256
19:00+20зюз1297100 31.6 1010161
22:00+19ссз1296100 7.9 1012116